Regional Weather Roundup
Issued by NWS

Home | Current Version | Previous Version | Text Only | Print | Product List | Glossary Off
Versions: 1 2 3 4 5 6 7 8 9 10 11 12 13 14 15 16 17 18 19 20 21 22 23 24 25 26 27 28 29 30 31 32 33 34 35 36 37 38 39 40 41 42 43 44 45 46 47 48 49 50

000
ASUS43 KLMK 261510
RWRKY
KENTUCKY REGIONAL WEATHER ROUNDUP
NATIONAL WEATHER SERVICE LOUISVILLE KY
1100 AM EDT FRI AUG 26 2016

NOTE "FAIR" INDICATES FEW OR NO CLOUDS BELOW 12,000 FEET
WITH NO SIGNIFICANT WEATHER AND/OR OBSTRUCTIONS TO VISIBILITY.

KYZ001>023-026-027-061>063-070>075-261600-
WESTERN AND SOUTH CENTRAL KENTUCKY

CITY           SKY/WX    TMP DP  RH WIND       PRES   REMARKS
PADUCAH        MOSUNNY   85  75  72 CALM      30.12S HX  93
HENDERSON      SUNNY     86  75  70 N5        30.12R HX  95
OWENSBORO      MOSUNNY   89  78  70 CALM      30.14R HX 102
HOPKINSVILLE   MOSUNNY   91  69  48 VRB1      30.14R HX  96
BOWLING GREEN  SUNNY     88  75  65 CALM      30.15R HX  97
GLASGOW        SUNNY     85  74  67 E6        30.16S HX  93
$$

KYZ024-025-028>034-038-045-046-053-261600-
NORTH CENTRAL KENTUCKY

CITY           SKY/WX    TMP DP  RH WIND       PRES   REMARKS
LOUISVILLE/SDF PTSUNNY   87  73  62 CALM      30.14S HX  94
LOUISVILLE/LOU MOSUNNY   87  70  56 VRB5      30.15S HX  92
FORT KNOX      MOSUNNY   83  75  74 W2        30.15R HX  91
$$

KYZ035>037-039>044-047>052-055>060-089>105-261600-
NORTHEAST KENTUCKY

CITY           SKY/WX    TMP DP  RH WIND       PRES   REMARKS
LEXINGTON      SUNNY     87  69  54 CALM      30.18R HX  91
COVINGTON      MOSUNNY   85  74  69 SE5       30.16S HX  92
FRANKFORT      CLOUDY    86  70  58 CALM      30.16R HX  90
$$

KYZ054-064>069-076>088-106>120-261600-
SOUTHEAST KENTUCKY

CITY           SKY/WX    TMP DP  RH WIND       PRES   REMARKS
JACKSON        SUNNY     82  73  74 CALM      30.20R
LONDON         SUNNY     83  70  64 E3        30.20R
SOMERSET       SUNNY     82  72  69 SE5       30.20R
MIDDLESBORO    PTSUNNY   75  73  93 CALM      30.21S
MONTICELLO     MOSUNNY  N/A N/A N/A MISG      30.19S
$$





USA.gov is the U.S. government's official web portal to all federal, state and local government web resources and services.